This is the latest recevied weather packets stored in our database for station/object LY3FF-10. If no packets are shown the sender has not sent any weather packets the latest 10 day(s).
| Time | Temp. | Humidity | Pressure | Rain* | Wind** | Luminosity | Snow |
|---|---|---|---|---|---|---|---|
| 1777738782 | 25° C | 18% | 996.5 hPa | - | - | - | - |
| 1777737952 | 25.56° C | 19% | 996.5 hPa | - | - | - | - |
| 1777737187 | 25.56° C | 18% | 996.7 hPa | - | - | - | - |
| 1777736462 | 25.56° C | 18% | 996.8 hPa | - | - | - | - |
| 1777735572 | 26.11° C | 18% | 996.9 hPa | - | - | - | - |
| 1777734727 | 26.11° C | 18% | 997 hPa | - | - | - | - |
| 1777733832 | 26.11° C | 18% | 997.1 hPa | - | - | - | - |
| 1777733087 | 25.56° C | 18% | 997.2 hPa | - | - | - | - |
| 1777732287 | 25.56° C | 18% | 997.2 hPa | - | - | - | - |
| 1777731542 | 32.78° C | 19% | 997.4 hPa | - | - | - | - |
| 1777730727 | 25.56° C | 19% | 997.4 hPa | - | - | - | - |
| 1777729981 | 25° C | 19% | 997.4 hPa | - | - | - | - |
| 1777729082 | 33.33° C | 19% | 997.6 hPa | - | - | - | - |
| 1777728261 | 34.44° C | 19% | 997.8 hPa | - | - | - | - |
| 1777727367 | 25° C | 19% | 998 hPa | - | - | - | - |
| 1777726557 | 24.44° C | 22% | 997.9 hPa | - | - | - | - |
| 1777725739 | 24.44° C | 22% | 998.3 hPa | - | - | - | - |
| 1777724968 | 35.56° C | 26% | 998.3 hPa | - | - | - | - |
| 1777724172 | 36.67° C | 25% | 998.4 hPa | - | - | - | - |
| 1777723357 | 24.44° C | 24% | 998.6 hPa | - | - | - | - |
| 1777722587 | 36.11° C | 27% | 998.7 hPa | - | - | - | - |
| 1777721821 | 23.33° C | 26% | 998.7 hPa | - | - | - | - |
| 1777720927 | 23.33° C | 30% | 998.8 hPa | - | - | - | - |
| 1777720197 | 35° C | 30% | 999 hPa | - | - | - | - |
| 1777719387 | 34.44° C | 30% | 999 hPa | - | - | - | - |
* Rain since midnight (hover to see other rain measurements)
** Current wind speed in m/s (hover to see current wind gust speed)